Fort Indiantown Gap, PA

9:42 AM EST on December 12, 2019 (GMT -0500)
Muir Army Air Field

Weather History for KMUI - October, 2019

Change the Weather History Date:

Saturday, October 19, 2019

  Actual Average Record
Temperature  
Mean Temperature 46 °F -  
Max Temperature 61 °F 59 °F 83 °F (2016)
Min Temperature 32 °F 43 °F 26 °F (2015)
Degree Days  
Heating Degree Days 19    
Moisture  
Dew Point 37 °F    
Average Humidity 70    
Maximum Humidity 92    
Minimum Humidity 42    
Precipitation  
Precipitation 0.00 in - - ()
Sea Level Pressure  
Sea Level Pressure 30.07 in    
Wind  
Wind Speed 1 mph (South)    
Max Wind Speed 9 mph    
Max Gust Speed -    
Visibility 10 miles    
Events      
Averages and records for this station are not official NWS values.
T = Trace of Precipitation, MM = Missing Value Source: NWS Daily Summary

Daily Weather History Graph

Daily Weather History Graph

Search for Another Location

Airport or City:

Astronomy

Oct. 19, 2019 Rise Set
Actual Time 7:21 AM EDT 6:20 PM EDT
Civil Twilight 6:53 AM EDT 6:48 PM EDT
Nautical Twilight 6:21 AM EDT 7:19 PM EDT
Astronomical Twilight 5:50 AM EDT 7:51 PM EDT
Moon 10:26 PM EDT (10/19) 12:52 PM EDT (10/19)
Length of Visible Light 11h 54m
Length of Day
10h 59m
Waning Gibbous, 70% of the Moon is Illuminated
Oct 19
Waning Gibbous
Oct 21
Last Quarter
Oct 27
New
Nov 4
First Quarter
Nov 12
Full

Hourly Weather History & Observations

Time (EDT) Temp. Dew Point Humidity Pressure Visibility Wind Dir Wind Speed Gust Speed Precip Events Conditions
12:56 AM 41.5 °F 34.2 °F 75% 30.08 in 10.0 mi Calm Calm - N/A   Clear
1:56 AM 38.7 °F 34.0 °F 83% 30.06 in 10.0 mi Calm Calm - N/A   Clear
2:56 AM 36.9 °F 33.4 °F 87% 30.06 in 10.0 mi Calm Calm - N/A   Clear
3:56 AM 34.7 °F 32.0 °F 90% 30.06 in 10.0 mi Calm Calm - N/A   Clear
4:56 AM 35.4 °F 32.2 °F 88% 30.09 in 10.0 mi Calm Calm - N/A   Clear
5:56 AM 32.4 °F 30.4 °F 92% 30.11 in 10.0 mi Calm Calm - N/A   Clear
6:56 AM 32.2 °F 29.7 °F 90% 30.12 in 10.0 mi Calm Calm - N/A   Clear
7:56 AM 33.1 °F 30.9 °F 92% 30.12 in 10.0 mi Calm Calm - N/A   Clear
8:56 AM 39.0 °F 35.2 °F 86% 30.14 in 10.0 mi Calm Calm - N/A   Clear
10:56 AM 52.5 °F 37.2 °F 56% 30.13 in 7.0 mi Calm Calm - N/A   Clear
11:56 AM 55.8 °F 36.9 °F 49% 30.12 in 10.0 mi Calm Calm - N/A   Clear
12:56 PM 57.2 °F 37.2 °F 47% 30.10 in 10.0 mi Calm Calm - N/A   Clear
1:56 PM 59.2 °F 37.2 °F 44% 30.08 in 10.0 mi SSW 6.9 mph - N/A   Clear
2:56 PM 60.8 °F 38.1 °F 43% 30.05 in 10.0 mi SW 9.2 mph - N/A   Clear
3:56 PM 60.8 °F 37.6 °F 42% 30.05 in 10.0 mi SSE 6.9 mph - N/A   Clear
4:56 PM 59.5 °F 38.1 °F 45% 30.03 in 10.0 mi South 3.5 mph - N/A   Clear
5:56 PM 58.3 °F 38.7 °F 48% 30.02 in 10.0 mi Calm Calm - N/A   Clear
6:56 PM 51.4 °F 41.2 °F 68% 30.03 in 10.0 mi Calm Calm - N/A   Clear
7:56 PM 49.3 °F 41.4 °F 74% 30.04 in 10.0 mi Calm Calm - N/A   Clear
8:56 PM 47.8 °F 41.4 °F 78% 30.04 in 10.0 mi Calm Calm - N/A   Clear
9:56 PM 47.1 °F 41.0 °F 79% 30.04 in 10.0 mi Calm Calm - N/A   Clear
10:56 PM 47.8 °F 41.0 °F 77% 30.03 in 10.0 mi Calm Calm - N/A   Partly Cloudy
11:56 PM 45.3 °F 41.0 °F 85% 30.03 in 10.0 mi Calm Calm - N/A   Partly Cloudy